Datum;"Wasserstand in cm";"Stationsnummer: 5897001";"Stationsname: Hohenofen, Wehr OP";"Gew?sser: Dosse";"Fehlwerte: -777"
"24.03.2024 00:00";163
"24.03.2024 00:15";163
"24.03.2024 00:30";163
"24.03.2024 00:45";163
"24.03.2024 01:00";163
"24.03.2024 01:15";163
"24.03.2024 01:30";163
"24.03.2024 01:45";163
"24.03.2024 02:00";163
"24.03.2024 02:15";163
"24.03.2024 02:30";163
"24.03.2024 02:45";163
"24.03.2024 03:00";163
"24.03.2024 03:15";163
"24.03.2024 03:30";163
"24.03.2024 03:45";163
"24.03.2024 04:00";163
"24.03.2024 04:15";163
"24.03.2024 04:30";163
"24.03.2024 04:45";163
"24.03.2024 05:00";163
"24.03.2024 05:15";163
"24.03.2024 05:30";163
"24.03.2024 05:45";163
"24.03.2024 06:00";163
"24.03.2024 06:15";163
"24.03.2024 06:30";163
"24.03.2024 06:45";163
"24.03.2024 07:00";163
"24.03.2024 07:15";163
"24.03.2024 07:30";163
"24.03.2024 07:45";163
"24.03.2024 08:00";163
"24.03.2024 08:15";163
"24.03.2024 08:30";163
"24.03.2024 08:45";163
"24.03.2024 09:00";163
"24.03.2024 09:15";163
"24.03.2024 09:30";163
"24.03.2024 09:45";163
"24.03.2024 10:00";163
"24.03.2024 10:15";163
"24.03.2024 10:30";163
"24.03.2024 10:45";163
"24.03.2024 11:00";163
"24.03.2024 11:15";163
"24.03.2024 11:30";163
"24.03.2024 11:45";163
"24.03.2024 12:00";163
"24.03.2024 12:15";163
"24.03.2024 12:30";163
"24.03.2024 12:45";163
"24.03.2024 13:00";163
"24.03.2024 13:15";163
"24.03.2024 13:30";163
"24.03.2024 13:45";163
"24.03.2024 14:00";163
"24.03.2024 14:15";163
"24.03.2024 14:30";163
"24.03.2024 14:45";163
"24.03.2024 15:00";163
"24.03.2024 15:15";163
"24.03.2024 15:30";163
"24.03.2024 15:45";163
"24.03.2024 16:00";163
"24.03.2024 16:15";163
"24.03.2024 16:30";163
"24.03.2024 16:45";163
"24.03.2024 17:00";163
"24.03.2024 17:15";163
"24.03.2024 17:30";163
"24.03.2024 17:45";163
"24.03.2024 18:00";163
"24.03.2024 18:15";163
"24.03.2024 18:30";163
"24.03.2024 18:45";163
"24.03.2024 19:00";163
"24.03.2024 19:15";163
"24.03.2024 19:30";163
"24.03.2024 19:45";163
"24.03.2024 20:00";163
"24.03.2024 20:15";163
"24.03.2024 20:30";163
"24.03.2024 20:45";163
"24.03.2024 21:00";163
"24.03.2024 21:15";163
"24.03.2024 21:30";163
"24.03.2024 21:45";163
"24.03.2024 22:00";163
"24.03.2024 22:15";163
"24.03.2024 22:30";163
"24.03.2024 22:45";163
"24.03.2024 23:00";163
"24.03.2024 23:15";163
"24.03.2024 23:30";163
"24.03.2024 23:45";163
"25.03.2024 00:00";163
"25.03.2024 00:15";163
"25.03.2024 00:30";163
"25.03.2024 00:45";163
"25.03.2024 01:00";163
"25.03.2024 01:15";163
"25.03.2024 01:30";163
"25.03.2024 01:45";163
"25.03.2024 02:00";163
"25.03.2024 02:15";163
"25.03.2024 02:30";163
"25.03.2024 02:45";163
"25.03.2024 03:00";163
"25.03.2024 03:15";163
"25.03.2024 03:30";163
"25.03.2024 03:45";163
"25.03.2024 04:00";163
"25.03.2024 04:15";163
"25.03.2024 04:30";163
"25.03.2024 04:45";163
"25.03.2024 05:00";163
"25.03.2024 05:15";163
"25.03.2024 05:30";163
"25.03.2024 05:45";163
"25.03.2024 06:00";163
"25.03.2024 06:15";163
"25.03.2024 06:30";163
"25.03.2024 06:45";163
"25.03.2024 07:00";163
"25.03.2024 07:15";163
"25.03.2024 07:30";163
"25.03.2024 07:45";164
"25.03.2024 08:00";164
"25.03.2024 08:15";164
"25.03.2024 08:30";164
"25.03.2024 08:45";164
"25.03.2024 09:00";164
"25.03.2024 09:15";164
"25.03.2024 09:30";164
"25.03.2024 09:45";164
"25.03.2024 10:00";164
"25.03.2024 10:15";164
"25.03.2024 10:30";164
"25.03.2024 10:45";164
"25.03.2024 11:00";164
"25.03.2024 11:15";164
"25.03.2024 11:30";164
"25.03.2024 11:45";164
"25.03.2024 12:00";164
"25.03.2024 12:15";164
"25.03.2024 12:30";164
"25.03.2024 12:45";164
"25.03.2024 13:00";164
"25.03.2024 13:15";164
"25.03.2024 13:30";164
"25.03.2024 13:45";164
"25.03.2024 14:00";164
"25.03.2024 14:15";164
"25.03.2024 14:30";164
"25.03.2024 14:45";165
"25.03.2024 15:00";165
"25.03.2024 15:15";165
"25.03.2024 15:30";165
"25.03.2024 15:45";165
"25.03.2024 16:00";165
"25.03.2024 16:15";165
"25.03.2024 16:30";165
"25.03.2024 16:45";165
"25.03.2024 17:00";165
"25.03.2024 17:15";165
"25.03.2024 17:30";165
"25.03.2024 17:45";165
"25.03.2024 18:00";165
"25.03.2024 18:15";165
"25.03.2024 18:30";165
"25.03.2024 18:45";165
"25.03.2024 19:00";165
"25.03.2024 19:15";165
"25.03.2024 19:30";165
"25.03.2024 19:45";165
"25.03.2024 20:00";165
"25.03.2024 20:15";165
"25.03.2024 20:30";165
"25.03.2024 20:45";165
"25.03.2024 21:00";165
"25.03.2024 21:15";165
"25.03.2024 21:30";165
"25.03.2024 21:45";165
"25.03.2024 22:00";165
"25.03.2024 22:15";165
"25.03.2024 22:30";165
"25.03.2024 22:45";165
"25.03.2024 23:00";165
"25.03.2024 23:15";165
"25.03.2024 23:30";165
"25.03.2024 23:45";165
"26.03.2024 00:00";165
"26.03.2024 00:15";165
"26.03.2024 00:30";165
"26.03.2024 00:45";165
"26.03.2024 01:00";165
"26.03.2024 01:15";165
"26.03.2024 01:30";165
"26.03.2024 01:45";165
"26.03.2024 02:00";165
"26.03.2024 02:15";165
"26.03.2024 02:30";165
"26.03.2024 02:45";165
"26.03.2024 03:00";165
"26.03.2024 03:15";165
"26.03.2024 03:30";165
"26.03.2024 03:45";165
"26.03.2024 04:00";165
"26.03.2024 04:15";165
"26.03.2024 04:30";165
"26.03.2024 04:45";165
"26.03.2024 05:00";165
"26.03.2024 05:15";165
"26.03.2024 05:30";165
"26.03.2024 05:45";165
"26.03.2024 06:00";165
"26.03.2024 06:15";165
"26.03.2024 06:30";165
"26.03.2024 06:45";165
"26.03.2024 07:00";165
"26.03.2024 07:15";165
"26.03.2024 07:30";165
"26.03.2024 07:45";165
"26.03.2024 08:00";165
"26.03.2024 08:15";165
"26.03.2024 08:30";166
"26.03.2024 08:45";168
"26.03.2024 09:00";169
"26.03.2024 09:15";170
"26.03.2024 09:30";170
"26.03.2024 09:45";171
"26.03.2024 10:00";171
"26.03.2024 10:15";171
"26.03.2024 10:30";171
"26.03.2024 10:45";171
"26.03.2024 11:00";171
"26.03.2024 11:15";171
"26.03.2024 11:30";171
"26.03.2024 11:45";171
"26.03.2024 12:00";172
"26.03.2024 12:15";172
"26.03.2024 12:30";172
"26.03.2024 12:45";172
"26.03.2024 13:00";172
"26.03.2024 13:15";172
"26.03.2024 13:30";172
"26.03.2024 13:45";172
"26.03.2024 14:00";172
"26.03.2024 14:15";172
"26.03.2024 14:30";172
"26.03.2024 14:45";172
"26.03.2024 15:00";172
"26.03.2024 15:15";172
"26.03.2024 15:30";172
"26.03.2024 15:45";169
"26.03.2024 16:00";167
"26.03.2024 16:15";167
"26.03.2024 16:30";166
"26.03.2024 16:45";166
"26.03.2024 17:00";166
"26.03.2024 17:15";166
"26.03.2024 17:30";165
"26.03.2024 17:45";165
"26.03.2024 18:00";165
"26.03.2024 18:15";165
"26.03.2024 18:30";165
"26.03.2024 18:45";165
"26.03.2024 19:00";165
"26.03.2024 19:15";165
"26.03.2024 19:30";165
"26.03.2024 19:45";165
"26.03.2024 20:00";165
"26.03.2024 20:15";165
"26.03.2024 20:30";164
"26.03.2024 20:45";164
"26.03.2024 21:00";164
"26.03.2024 21:15";164
"26.03.2024 21:30";164
"26.03.2024 21:45";164
"26.03.2024 22:00";164
"26.03.2024 22:15";164
"26.03.2024 22:30";164
"26.03.2024 22:45";164
"26.03.2024 23:00";164
"26.03.2024 23:15";164
"26.03.2024 23:30";164
"26.03.2024 23:45";163
"27.03.2024 00:00";163
"27.03.2024 00:15";163
"27.03.2024 00:30";163
"27.03.2024 00:45";163
"27.03.2024 01:00";163
"27.03.2024 01:15";163
"27.03.2024 01:30";163
"27.03.2024 01:45";163
"27.03.2024 02:00";163
"27.03.2024 02:15";163
"27.03.2024 02:30";163
"27.03.2024 02:45";163
"27.03.2024 03:00";163
"27.03.2024 03:15";163
"27.03.2024 03:30";163
"27.03.2024 03:45";163
"27.03.2024 04:00";163
"27.03.2024 04:15";163
"27.03.2024 04:30";163
"27.03.2024 04:45";163
"27.03.2024 05:00";163
"27.03.2024 05:15";163
"27.03.2024 05:30";163
"27.03.2024 05:45";163
"27.03.2024 06:00";163
"27.03.2024 06:15";163
"27.03.2024 06:30";163
"27.03.2024 06:45";163
"27.03.2024 07:00";163
"27.03.2024 07:15";163
"27.03.2024 07:30";163
"27.03.2024 07:45";163
"27.03.2024 08:00";163
"27.03.2024 08:15";163
"27.03.2024 08:30";163
"27.03.2024 08:45";163
"27.03.2024 09:00";163
"27.03.2024 09:15";163
"27.03.2024 09:30";163
"27.03.2024 09:45";163
"27.03.2024 10:00";163
"27.03.2024 10:15";163
"27.03.2024 10:30";163
"27.03.2024 10:45";163
"27.03.2024 11:00";163
"27.03.2024 11:15";163
"27.03.2024 11:30";163
"27.03.2024 11:45";163
"27.03.2024 12:00";163
"27.03.2024 12:15";163
"27.03.2024 12:30";163
"27.03.2024 12:45";163
"27.03.2024 13:00";163
"27.03.2024 13:15";163
"27.03.2024 13:30";163
"27.03.2024 13:45";163
"27.03.2024 14:00";163
"27.03.2024 14:15";163
"27.03.2024 14:30";163
"27.03.2024 14:45";163
"27.03.2024 15:00";163
"27.03.2024 15:15";163
"27.03.2024 15:30";163
"27.03.2024 15:45";163
"27.03.2024 16:00";163
"27.03.2024 16:15";163
"27.03.2024 16:30";163
"27.03.2024 16:45";163
"27.03.2024 17:00";163
"27.03.2024 17:15";163
"27.03.2024 17:30";163
"27.03.2024 17:45";162
"27.03.2024 18:00";162
"27.03.2024 18:15";162
"27.03.2024 18:30";162
"27.03.2024 18:45";162
"27.03.2024 19:00";162
"27.03.2024 19:15";162
"27.03.2024 19:30";162
"27.03.2024 19:45";162
"27.03.2024 20:00";162
"27.03.2024 20:15";162
"27.03.2024 20:30";162
"27.03.2024 20:45";162
"27.03.2024 21:00";162
"27.03.2024 21:15";162
"27.03.2024 21:30";162
"27.03.2024 21:45";162
"27.03.2024 22:00";162
"27.03.2024 22:15";162
"27.03.2024 22:30";162
"27.03.2024 22:45";162
"27.03.2024 23:00";162
"27.03.2024 23:15";162
"27.03.2024 23:30";162
"27.03.2024 23:45";162
"28.03.2024 00:00";162
"28.03.2024 00:15";162
"28.03.2024 00:30";162
"28.03.2024 00:45";162
"28.03.2024 01:00";162
"28.03.2024 01:15";162
"28.03.2024 01:30";162
"28.03.2024 01:45";162
"28.03.2024 02:00";162
"28.03.2024 02:15";162
"28.03.2024 02:30";162
"28.03.2024 02:45";162
"28.03.2024 03:00";162
"28.03.2024 03:15";162
"28.03.2024 03:30";162
"28.03.2024 03:45";162
"28.03.2024 04:00";162
"28.03.2024 04:15";162
"28.03.2024 04:30";162
"28.03.2024 04:45";162
"28.03.2024 05:00";162
"28.03.2024 05:15";162
"28.03.2024 05:30";162
"28.03.2024 05:45";162
"28.03.2024 06:00";162
"28.03.2024 06:15";162
"28.03.2024 06:30";162
"28.03.2024 06:45";162
"28.03.2024 07:00";162
"28.03.2024 07:15";162
"28.03.2024 07:30";162
"28.03.2024 07:45";162
"28.03.2024 08:00";162
"28.03.2024 08:15";162
"28.03.2024 08:30";162
"28.03.2024 08:45";162
"28.03.2024 09:00";162
"28.03.2024 09:15";162
"28.03.2024 09:30";162
"28.03.2024 09:45";162
"28.03.2024 10:00";162
"28.03.2024 10:15";162
"28.03.2024 10:30";162
"28.03.2024 10:45";162
"28.03.2024 11:00";162
"28.03.2024 11:15";162
"28.03.2024 11:30";162
"28.03.2024 11:45";162
"28.03.2024 12:00";162
"28.03.2024 12:15";162
"28.03.2024 12:30";162
"28.03.2024 12:45";162
"28.03.2024 13:00";162
"28.03.2024 13:15";162
"28.03.2024 13:30";162
"28.03.2024 13:45";162
"28.03.2024 14:00";162
"28.03.2024 14:15";162
"28.03.2024 14:30";162
"28.03.2024 14:45";162
"28.03.2024 15:00";162
"28.03.2024 15:15";162
"28.03.2024 15:30";162
"28.03.2024 15:45";162
"28.03.2024 16:00";162
"28.03.2024 16:15";162
"28.03.2024 16:30";162
"28.03.2024 16:45";162
"28.03.2024 17:00";162
"28.03.2024 17:15";162
"28.03.2024 17:30";162
"28.03.2024 17:45";162
"28.03.2024 18:00";162
"28.03.2024 18:15";162
"28.03.2024 18:30";161
"28.03.2024 18:45";161
"28.03.2024 19:00";161
"28.03.2024 19:15";161
"28.03.2024 19:30";161
"28.03.2024 19:45";161
"28.03.2024 20:00";161
"28.03.2024 20:15";161
"28.03.2024 20:30";161
"28.03.2024 20:45";161
"28.03.2024 21:00";161
"28.03.2024 21:15";161
"28.03.2024 21:30";161
"28.03.2024 21:45";161
"28.03.2024 22:00";161
"28.03.2024 22:15";161
"28.03.2024 22:30";161
"28.03.2024 22:45";161
"28.03.2024 23:00";161
"28.03.2024 23:15";161
"28.03.2024 23:30";161
"28.03.2024 23:45";161
"29.03.2024 00:00";161
"29.03.2024 00:15";161
"29.03.2024 00:30";161
"29.03.2024 00:45";161
"29.03.2024 01:00";161
"29.03.2024 01:15";161
"29.03.2024 01:30";161
"29.03.2024 01:45";161
"29.03.2024 02:00";161
"29.03.2024 02:15";161
"29.03.2024 02:30";161
"29.03.2024 02:45";161
"29.03.2024 03:00";161
"29.03.2024 03:15";161
"29.03.2024 03:30";161
"29.03.2024 03:45";161
"29.03.2024 04:00";161
"29.03.2024 04:15";161
"29.03.2024 04:30";161
"29.03.2024 04:45";161
"29.03.2024 05:00";161
"29.03.2024 05:15";161
"29.03.2024 05:30";161
"29.03.2024 05:45";161
"29.03.2024 06:00";161
"29.03.2024 06:15";161
"29.03.2024 06:30";161
"29.03.2024 06:45";161
"29.03.2024 07:00";161
"29.03.2024 07:15";161
"29.03.2024 07:30";161
"29.03.2024 07:45";161
"29.03.2024 08:00";161
"29.03.2024 08:15";161
"29.03.2024 08:30";161
"29.03.2024 08:45";161
"29.03.2024 09:00";161
"29.03.2024 09:15";161
"29.03.2024 09:30";161
"29.03.2024 09:45";161
"29.03.2024 10:00";161
"29.03.2024 10:15";161
"29.03.2024 10:30";161
"29.03.2024 10:45";161
"29.03.2024 11:00";161
"29.03.2024 11:15";161
"29.03.2024 11:30";161
"29.03.2024 11:45";161
"29.03.2024 12:00";161
"29.03.2024 12:15";161
"29.03.2024 12:30";161
"29.03.2024 12:45";161
"29.03.2024 13:00";161
"29.03.2024 13:15";161
"29.03.2024 13:30";161
"29.03.2024 13:45";161
"29.03.2024 14:00";161
"29.03.2024 14:15";161
"29.03.2024 14:30";161
"29.03.2024 14:45";161
"29.03.2024 15:00";161
"29.03.2024 15:15";161
"29.03.2024 15:30";161
"29.03.2024 15:45";161
"29.03.2024 16:00";161
"29.03.2024 16:15";161
"29.03.2024 16:30";161
"29.03.2024 16:45";161
"29.03.2024 17:00";161
"29.03.2024 17:15";161
"29.03.2024 17:30";161
"29.03.2024 17:45";161
"29.03.2024 18:00";160
"29.03.2024 18:15";160
"29.03.2024 18:30";160
"29.03.2024 18:45";160
"29.03.2024 19:00";160
"29.03.2024 19:15";160
"29.03.2024 19:30";160
"29.03.2024 19:45";160
"29.03.2024 20:00";160
"29.03.2024 20:15";160
"29.03.2024 20:30";160
"29.03.2024 20:45";160
"29.03.2024 21:00";160
"29.03.2024 21:15";160
"29.03.2024 21:30";160
"29.03.2024 21:45";160
"29.03.2024 22:00";160
"29.03.2024 22:15";160
"29.03.2024 22:30";160
"29.03.2024 22:45";160
"29.03.2024 23:00";160
"29.03.2024 23:15";160
"29.03.2024 23:30";160
"29.03.2024 23:45";160
"30.03.2024 00:00";160
"30.03.2024 00:15";160
"30.03.2024 00:30";160
"30.03.2024 00:45";160
"30.03.2024 01:00";160
"30.03.2024 01:15";160
"30.03.2024 01:30";160
"30.03.2024 01:45";160
"30.03.2024 02:00";160
"30.03.2024 02:15";160
"30.03.2024 02:30";160
"30.03.2024 02:45";160
"30.03.2024 03:00";160
"30.03.2024 03:15";160
"30.03.2024 03:30";160
"30.03.2024 03:45";160
"30.03.2024 04:00";160
"30.03.2024 04:15";160
"30.03.2024 04:30";160
"30.03.2024 04:45";160
"30.03.2024 05:00";160
"30.03.2024 05:15";160
"30.03.2024 05:30";160
"30.03.2024 05:45";160
"30.03.2024 06:00";160
"30.03.2024 06:15";160
"30.03.2024 06:30";160
"30.03.2024 06:45";160
"30.03.2024 07:00";160
"30.03.2024 07:15";160
"30.03.2024 07:30";160
"30.03.2024 07:45";160
"30.03.2024 08:00";160
"30.03.2024 08:15";160
"30.03.2024 08:30";160
"30.03.2024 08:45";160
"30.03.2024 09:00";160
"30.03.2024 09:15";160
"30.03.2024 09:30";160
"30.03.2024 09:45";160
"30.03.2024 10:00";160
"30.03.2024 10:15";160
"30.03.2024 10:30";160
"30.03.2024 10:45";160
"30.03.2024 11:00";160
"30.03.2024 11:15";160
"30.03.2024 11:30";160
"30.03.2024 11:45";160
"30.03.2024 12:00";160
"30.03.2024 12:15";160
"30.03.2024 12:30";160
"30.03.2024 12:45";160
"30.03.2024 13:00";160
"30.03.2024 13:15";160
"30.03.2024 13:30";160
"30.03.2024 13:45";160
"30.03.2024 14:00";160
"30.03.2024 14:15";160
"30.03.2024 14:30";160
"30.03.2024 14:45";160
"30.03.2024 15:00";160
"30.03.2024 15:15";160
"30.03.2024 15:30";160
"30.03.2024 15:45";160
"30.03.2024 16:00";160
"30.03.2024 16:15";160
"30.03.2024 16:30";160
"30.03.2024 16:45";160
"30.03.2024 17:00";160
"30.03.2024 17:15";160
"30.03.2024 17:30";160
"30.03.2024 17:45";160
"30.03.2024 18:00";160
"30.03.2024 18:15";160
"30.03.2024 18:30";160
"30.03.2024 18:45";160
"30.03.2024 19:00";160
"30.03.2024 19:15";160
"30.03.2024 19:30";160
"30.03.2024 19:45";160
"30.03.2024 20:00";160
"30.03.2024 20:15";160
"30.03.2024 20:30";160
"30.03.2024 20:45";160
"30.03.2024 21:00";160
"30.03.2024 21:15";160
"30.03.2024 21:30";160
"30.03.2024 21:45";160
"30.03.2024 22:00";160
"30.03.2024 22:15";160
"30.03.2024 22:30";159
"30.03.2024 22:45";159
"30.03.2024 23:00";159
"30.03.2024 23:15";159
"30.03.2024 23:30";159
"30.03.2024 23:45";159
"31.03.2024 00:00";159
"31.03.2024 00:15";159
"31.03.2024 00:30";159
"31.03.2024 00:45";159
"31.03.2024 01:00";159
"31.03.2024 01:15";159
"31.03.2024 01:30";159
"31.03.2024 01:45";159
"31.03.2024 02:00";159
"31.03.2024 02:15";159
"31.03.2024 02:30";159
"31.03.2024 02:45";159
"31.03.2024 03:00";159
"31.03.2024 03:15";159
"31.03.2024 03:30";159
"31.03.2024 03:45";159
"31.03.2024 04:00";159
"31.03.2024 04:15";159
"31.03.2024 04:30";159
"31.03.2024 04:45";159
"31.03.2024 05:00";159
"31.03.2024 05:15";159
"31.03.2024 05:30";159
"31.03.2024 05:45";159
"31.03.2024 06:00";159
"31.03.2024 06:15";159
"31.03.2024 06:30";159
"31.03.2024 06:45";159
"31.03.2024 07:00";159
"31.03.2024 07:15";159
"31.03.2024 07:30";159
"31.03.2024 07:45";159
"31.03.2024 08:00";159
"31.03.2024 08:15";159
"31.03.2024 08:30";159
"31.03.2024 08:45";159
"31.03.2024 09:00";159
"31.03.2024 09:15";159
"31.03.2024 09:30";159
"31.03.2024 09:45";159
"31.03.2024 10:00";159
"31.03.2024 10:15";159
"31.03.2024 10:30";159
"31.03.2024 10:45";159
"31.03.2024 11:00";159
"31.03.2024 11:15";159
"31.03.2024 11:30";159
"31.03.2024 11:45";159
"31.03.2024 12:00";159
"31.03.2024 12:15";159
"31.03.2024 12:30";159
"31.03.2024 12:45";159
"31.03.2024 13:00";159
"31.03.2024 13:15";159
"31.03.2024 13:30";159
"31.03.2024 13:45";159
"31.03.2024 14:00";159
"31.03.2024 14:15";159
"31.03.2024 14:30";159
"31.03.2024 14:45";159
"31.03.2024 15:00";159
"31.03.2024 15:15";159
"31.03.2024 15:30";159
"31.03.2024 15:45";159
"31.03.2024 16:00";159
"31.03.2024 16:15";159
"31.03.2024 16:30";159
"31.03.2024 16:45";159
"31.03.2024 17:00";159
"31.03.2024 17:15";159
"31.03.2024 17:30";159
"31.03.2024 17:45";159
"31.03.2024 18:00";159
"31.03.2024 18:15";159
"31.03.2024 18:30";159
"31.03.2024 18:45";159
"31.03.2024 19:00";159
"31.03.2024 19:15";159
"31.03.2024 19:30";159
"31.03.2024 19:45";159
"31.03.2024 20:00";159
"31.03.2024 20:15";159
"31.03.2024 20:30";159
"31.03.2024 20:45";159
"31.03.2024 21:00";159
"31.03.2024 21:15";159
"31.03.2024 21:30";159
"31.03.2024 21:45";159
"31.03.2024 22:00";159
"31.03.2024 22:15";159
"31.03.2024 22:30";159
"31.03.2024 22:45";159
"31.03.2024 23:00";159
"31.03.2024 23:15";159
"31.03.2024 23:30";159
"31.03.2024 23:45";159
"01.04.2024 00:00";159
"01.04.2024 00:15";159
"01.04.2024 00:30";159
"01.04.2024 00:45";159
"01.04.2024 01:00";159
"01.04.2024 01:15";159
"01.04.2024 01:30";159
"01.04.2024 01:45";159
"01.04.2024 02:00";159
"01.04.2024 02:15";159
"01.04.2024 02:30";159
"01.04.2024 02:45";159
"01.04.2024 03:00";159
"01.04.2024 03:15";159
"01.04.2024 03:30";159
"01.04.2024 03:45";159
"01.04.2024 04:00";159
"01.04.2024 04:15";159
"01.04.2024 04:30";159
"01.04.2024 04:45";159
"01.04.2024 05:00";159
"01.04.2024 05:15";159
"01.04.2024 05:30";159
"01.04.2024 05:45";159
"01.04.2024 06:00";159
"01.04.2024 06:15";158
"01.04.2024 06:30";158
"01.04.2024 06:45";158
"01.04.2024 07:00";158
"01.04.2024 07:15";158
"01.04.2024 07:30";158
"01.04.2024 07:45";158
"01.04.2024 08:00";158
"01.04.2024 08:15";158
"01.04.2024 08:30";158
"01.04.2024 08:45";158
"01.04.2024 09:00";158
"01.04.2024 09:15";158
"01.04.2024 09:30";158
"01.04.2024 09:45";158
"01.04.2024 10:00";158
"01.04.2024 10:15";158
"01.04.2024 10:30";158
"01.04.2024 10:45";158
"01.04.2024 11:00";158
"01.04.2024 11:15";158
"01.04.2024 11:30";158
"01.04.2024 11:45";158
"01.04.2024 12:00";158
"01.04.2024 12:15";158
"01.04.2024 12:30";158
"01.04.2024 12:45";158
"01.04.2024 13:00";158
"01.04.2024 13:15";158
"01.04.2024 13:30";158
"01.04.2024 13:45";158
"01.04.2024 14:00";158
"01.04.2024 14:15";158
"01.04.2024 14:30";158
"01.04.2024 14:45";158
"01.04.2024 15:00";158
"01.04.2024 15:15";158
"01.04.2024 15:30";158
"01.04.2024 15:45";158
"01.04.2024 16:00";158
"01.04.2024 16:15";158
"01.04.2024 16:30";158
"01.04.2024 16:45";158
"01.04.2024 17:00";158
"01.04.2024 17:15";158
"01.04.2024 17:30";158
"01.04.2024 17:45";158
"01.04.2024 18:00";158
"01.04.2024 18:15";158
"01.04.2024 18:30";158
"01.04.2024 18:45";158
"01.04.2024 19:00";158
"01.04.2024 19:15";158
"01.04.2024 19:30";158
"01.04.2024 19:45";158
"01.04.2024 20:00";158
"01.04.2024 20:15";158
"01.04.2024 20:30";158
"01.04.2024 20:45";158
"01.04.2024 21:00";158
"01.04.2024 21:15";158
"01.04.2024 21:30";158
"01.04.2024 21:45";158
"01.04.2024 22:00";158
"01.04.2024 22:15";158
"01.04.2024 22:30";158
"01.04.2024 22:45";158
"01.04.2024 23:00";158
"01.04.2024 23:15";158
"01.04.2024 23:30";158
"01.04.2024 23:45";158
"02.04.2024 00:00";158
"02.04.2024 00:15";158
"02.04.2024 00:30";158
"02.04.2024 00:45";158
"02.04.2024 01:00";158
"02.04.2024 01:15";158
"02.04.2024 01:30";158
"02.04.2024 01:45";158
"02.04.2024 02:00";158
"02.04.2024 02:15";158
"02.04.2024 02:30";158
"02.04.2024 02:45";158
"02.04.2024 03:00";158
"02.04.2024 03:15";158
"02.04.2024 03:30";158
"02.04.2024 03:45";158
"02.04.2024 04:00";158
"02.04.2024 04:15";158
"02.04.2024 04:30";158
"02.04.2024 04:45";158
"02.04.2024 05:00";158
"02.04.2024 05:15";158
"02.04.2024 05:30";158
"02.04.2024 05:45";158
"02.04.2024 06:00";158
"02.04.2024 06:15";158
"02.04.2024 06:30";158
"02.04.2024 06:45";158
"02.04.2024 07:00";158
"02.04.2024 07:15";158
"02.04.2024 07:30";158
"02.04.2024 07:45";158
"02.04.2024 08:00";158
"02.04.2024 08:15";158
"02.04.2024 08:30";158
"02.04.2024 08:45";157
"02.04.2024 09:00";157
"02.04.2024 09:15";157
"02.04.2024 09:30";157
"02.04.2024 09:45";157
"02.04.2024 10:00";156
"02.04.2024 10:15";156
"02.04.2024 10:30";156
"02.04.2024 10:45";156
"02.04.2024 11:00";156
"02.04.2024 11:15";156
"02.04.2024 11:30";156
"02.04.2024 11:45";156
"02.04.2024 12:00";156
"02.04.2024 12:15";155
"02.04.2024 12:30";155
"02.04.2024 12:45";155
"02.04.2024 13:00";155
"02.04.2024 13:15";155
"02.04.2024 13:30";155
"02.04.2024 13:45";155
"02.04.2024 14:00";155
"02.04.2024 14:15";155
"02.04.2024 14:30";155
"02.04.2024 14:45";155
"02.04.2024 15:00";155
"02.04.2024 15:15";155
"02.04.2024 15:30";155
"02.04.2024 15:45";155
"02.04.2024 16:00";155
"02.04.2024 16:15";155
"02.04.2024 16:30";155
"02.04.2024 16:45";155
"02.04.2024 17:00";155
"02.04.2024 17:15";155
"02.04.2024 17:30";155
"02.04.2024 17:45";155
"02.04.2024 18:00";155
"02.04.2024 18:15";155
"02.04.2024 18:30";155
"02.04.2024 18:45";155
"02.04.2024 19:00";155
"02.04.2024 19:15";155
"02.04.2024 19:30";155
"02.04.2024 19:45";155
"02.04.2024 20:00";155
"02.04.2024 20:15";155
"02.04.2024 20:30";155
"02.04.2024 20:45";155
"02.04.2024 21:00";155
"02.04.2024 21:15";155
"02.04.2024 21:30";155
"02.04.2024 21:45";155
"02.04.2024 22:00";155
"02.04.2024 22:15";155
"02.04.2024 22:30";155
"02.04.2024 22:45";155
"02.04.2024 23:00";155
"02.04.2024 23:15";155
"02.04.2024 23:30";155
"02.04.2024 23:45";155
"03.04.2024 00:00";155
"03.04.2024 00:15";155
"03.04.2024 00:30";155
"03.04.2024 00:45";155
"03.04.2024 01:00";155
"03.04.2024 01:15";155
"03.04.2024 01:30";155
"03.04.2024 01:45";155
"03.04.2024 02:00";155
"03.04.2024 02:15";155
"03.04.2024 02:30";155
"03.04.2024 02:45";155
"03.04.2024 03:00";155
"03.04.2024 03:15";155
"03.04.2024 03:30";155
"03.04.2024 03:45";155
"03.04.2024 04:00";155
"03.04.2024 04:15";155
"03.04.2024 04:30";155
"03.04.2024 04:45";155
"03.04.2024 05:00";155
"03.04.2024 05:15";155
"03.04.2024 05:30";155
"03.04.2024 05:45";155
"03.04.2024 06:00";155
"03.04.2024 06:15";155
"03.04.2024 06:30";155
"03.04.2024 06:45";155
"03.04.2024 07:00";155
"03.04.2024 07:15";155
"03.04.2024 07:30";155
"03.04.2024 07:45";155
"03.04.2024 08:00";155
"03.04.2024 08:15";155
"03.04.2024 08:30";155
"03.04.2024 08:45";155
"03.04.2024 09:00";155
"03.04.2024 09:15";155
"03.04.2024 09:30";155
"03.04.2024 09:45";155
"03.04.2024 10:00";155
"03.04.2024 10:15";155
"03.04.2024 10:30";155
"03.04.2024 10:45";155
"03.04.2024 11:00";155
"03.04.2024 11:15";155
"03.04.2024 11:30";155
"03.04.2024 11:45";155
"03.04.2024 12:00";155
"03.04.2024 12:15";155
"03.04.2024 12:30";155
"03.04.2024 12:45";155
"03.04.2024 13:00";155
"03.04.2024 13:15";155
"03.04.2024 13:30";155
"03.04.2024 13:45";155
"03.04.2024 14:00";155
"03.04.2024 14:15";155
"03.04.2024 14:30";155
"03.04.2024 14:45";155
"03.04.2024 15:00";155
"03.04.2024 15:15";155
"03.04.2024 15:30";155
"03.04.2024 15:45";155
"03.04.2024 16:00";155
"03.04.2024 16:15";155
"03.04.2024 16:30";155
"03.04.2024 16:45";155
"03.04.2024 17:00";155
"03.04.2024 17:15";155
"03.04.2024 17:30";155
"03.04.2024 17:45";155
"03.04.2024 18:00";155
"03.04.2024 18:15";155
"03.04.2024 18:30";155
"03.04.2024 18:45";155
"03.04.2024 19:00";155
"03.04.2024 19:15";155